Tracking 20383 objects as of 23-Feb-2020
HD Live streaming from Space Station
objects crossing your sky now
Track the group of recently launched Starlink satellites

OPS 7218 (TRANSIT 16)

Track OPS 7218 (TRANSIT 16) now!
10-day predictions
OPS 7218 (TRANSIT 16) is classified as:


NORAD ID: 2807
Int'l Code: 1967-048A
Perigee: 1,062.3 km
Apogee: 1,094.9 km
Inclination: 89.6 °
Period: 106.6 minutes
Semi major axis: 7449 km
RCS: 1.5463 m2 (large)
Launch date: May 18, 1967
Source: United States (US)
Launch site: AIR FORCE WESTERN TEST RANGE (AFWTR)
aabbcc
Your satellite tracking list
Your tracking list is empty




NASA's NSSDC Master Catalog

Two Line Element Set (TLE):
1  2807U 67048A   20053.58846178 +.00000066 +00000-0 +86496-4 0  9998
2  2807 089.6221 067.2958 0021890 122.1868 025.9609 13.50225492596714
Source of the keplerian elements: AFSPC